Location: Caltech
(34.1382°N, 118.1253°W)
Time: 12:57:23
(UTC-07:00)

Hamsat - Visible Passes

Search period start: 04 August 2015 00:00
Search period end: 14 August 2015 00:00
Orbit: 590 x 621 km, 97.6° (Epoch: 04 August)

Date Brightness Start Highest point End Pass type
(mag) Time Alt. Az. Time Alt. Az. Time Alt. Az.
06 Aug ? 04:55:10 10° ENE 04:56:31 12° E 04:58:08 10° ESE visible
07 Aug ? 05:06:48 10° NE 05:09:28 17° E 05:12:17 10° SE visible
08 Aug ? 05:19:00 10° NE 05:22:24 24° E 05:25:50 10° SSE visible
09 Aug ? 05:31:26 10° NNE 05:35:17 34° E 05:39:07 10° SSE visible
